| time (UTC) | temp F | wind direction | speed knots | gust knots | rain 1hr in | rain 24hr in | rain mn in | humidity % | barometer mb |
| 20260506035125 | 62 | 300 | 4.3 | 4.3 | 0.00 | 0.00 | 0.00 | 80 | 1007.2 |
| 20260506034622 | 62 | 18 | 1.7 | 1.7 | 0.00 | 0.00 | 0.00 | 80 | 1007.2 |
| 20260506034119 | 62 | 312 | 4.3 | 4.3 | 0.00 | 0.00 | 0.00 | 80 | 1007.2 |
| 20260506033616 | 63 | 318 | 1.7 | 1.7 | 0.00 | 0.00 | 0.00 | 80 | 1007.5 |
| 20260506033113 | 63 | 31 | 2.6 | 2.6 | 0.00 | 0.00 | 0.00 | 80 | 1007.5 |
| 20260506032606 | 63 | 312 | 1.7 | 1.7 | 0.00 | 0.00 | 0.00 | 80 | 1007.2 |
| 20260506032102 | 63 | 312 | 0.0 | 0.0 | 0.00 | 0.00 | 0.00 | 80 | 1007.2 |
| 20260506031600 | 63 | 318 | 1.7 | 1.7 | 0.00 | 0.00 | 0.00 | 80 | 1007.2 |
| 20260506031056 | 63 | 318 | 1.7 | 1.7 | 0.00 | 0.00 | 0.00 | 80 | 1007.2 |
| 20260506030555 | 64 | 314 | 2.6 | 2.6 | 0.00 | 0.00 | 0.00 | 80 | 1006.8 |
| 20260506030052 | 64 | 306 | 2.6 | 2.6 | 0.00 | 0.00 | 0.00 | 80 | 1006.8 |
| 20260506025549 | 64 | 279 | 1.7 | 1.7 | 0.00 | 0.00 | 0.00 | 80 | 1006.5 |
| 20260506025044 | 64 | 330 | 2.6 | 2.6 | 0.00 | 0.00 | 0.00 | 79 | 1006.5 |
| 20260506024541 | 65 | 319 | 2.6 | 3.5 | 0.00 | 0.00 | 0.00 | 79 | 1006.5 |
| 20260506024037 | 65 | 320 | 2.6 | 2.6 | 0.00 | 0.00 | 0.00 | 79 | 1006.5 |
| 20260506023533 | 65 | 306 | 2.6 | 3.5 | 0.00 | 0.00 | 0.00 | 79 | 1006.5 |
| 20260506023031 | 65 | 320 | 1.7 | 1.7 | 0.00 | 0.00 | 0.00 | 79 | 1005.7 |
| 20260506022528 | 66 | 309 | 3.5 | 3.5 | 0.00 | 0.00 | 0.00 | 78 | 1005.7 |
| 20260506022021 | 66 | 319 | 1.7 | 1.7 | 0.00 | 0.00 | 0.00 | 79 | 1005.4 |
| 20260506021518 | 67 | 349 | 0.0 | 0.0 | 0.00 | 0.00 | 0.00 | 79 | 1005.4 |
| 20260506021015 | 67 | 314 | 2.6 | 2.6 | 0.00 | 0.00 | 0.00 | 78 | 1005.4 |
| 20260506020513 | 67 | 0 | 0.0 | 0.0 | 0.00 | 0.00 | 0.00 | 78 | 1005.0 |
| 20260506020010 | 67 | 321 | 1.7 | 1.7 | 0.00 | 0.00 | 0.00 | 78 | 1005.4 |
| 20260506015507 | 67 | 25 | 1.7 | 1.7 | 0.00 | 0.00 | 0.00 | 78 | 1005.0 |
| 20260506015004 | 67 | 46 | 1.7 | 1.7 | 0.00 | 0.00 | 0.00 | 78 | 1005.0 |
| 20260506014502 | 67 | 67 | 3.5 | 3.5 | 0.00 | 0.00 | 0.00 | 78 | 1004.7 |
| 20260506013957 | 68 | 327 | 0.0 | 0.0 | 0.00 | 0.00 | 0.00 | 77 | 1004.7 |
| 20260506013455 | 68 | 327 | 0.0 | 0.0 | 0.00 | 0.00 | 0.00 | 77 | 1004.7 |
| 20260506012951 | 68 | 327 | 1.7 | 1.7 | 0.00 | 0.00 | 0.00 | 76 | 1004.4 |
| 20260506012448 | 68 | 268 | 0.0 | 0.0 | 0.00 | 0.00 | 0.00 | 75 | 1004.7 |
| 20260506011945 | 68 | 248 | 0.0 | 0.0 | 0.00 | 0.00 | 0.00 | 75 | 1004.4 |
| 20260506011442 | 68 | 248 | 1.7 | 1.7 | 0.00 | 0.00 | 0.00 | 74 | 1004.4 |
| 20260506010939 | 68 | 306 | 0.0 | 0.0 | 0.00 | 0.00 | 0.00 | 74 | 1004.0 |
| 20260506010438 | 69 | 319 | 3.5 | 3.5 | 0.00 | 0.00 | 0.00 | 74 | 1004.0 |
| 20260506005934 | 69 | 252 | 0.0 | 0.0 | 0.00 | 0.00 | 0.00 | 73 | 1004.0 |
| 20260506005432 | 69 | 306 | 1.7 | 1.7 | 0.00 | 0.00 | 0.00 | 73 | 1004.0 |
| 20260506004932 | 69 | 298 | 4.3 | 5.2 | 0.00 | 0.00 | 0.00 | 73 | 1003.7 |
| 20260506004430 | 69 | 320 | 2.6 | 2.6 | 0.00 | 0.00 | 0.00 | 73 | 1003.7 |
| 20260506003926 | 70 | 313 | 2.6 | 2.6 | 0.00 | 0.00 | 0.00 | 73 | 1003.4 |
| 20260506003423 | 70 | 324 | 3.5 | 4.3 | 0.00 | 0.00 | 0.00 | 73 | 1003.7 |
| 20260506002919 | 71 | 307 | 1.7 | 1.7 | 0.00 | 0.00 | 0.00 | 73 | 1003.0 |
| 20260506002415 | 71 | 37 | 3.5 | 3.5 | 0.00 | 0.00 | 0.00 | 72 | 1003.4 |
| 20260506001910 | 71 | 326 | 1.7 | 1.7 | 0.00 | 0.00 | 0.00 | 71 | 1003.4 |
| 20260506001408 | 72 | 318 | 1.7 | 1.7 | 0.00 | 0.00 | 0.00 | 70 | 1003.4 |
| 20260506000905 | 72 | 306 | 2.6 | 2.6 | 0.00 | 0.00 | 0.00 | 70 | 1003.7 |
| 20260506000403 | 72 | 302 | 3.5 | 3.5 | 0.00 | 0.00 | 0.00 | 70 | 1003.0 |
| 20260505235859 | 73 | 299 | 5.2 | 6.1 | 0.00 | 0.00 | 0.00 | 69 | 1003.4 |
| 20260505235357 | 73 | 50 | 3.5 | 3.5 | 0.00 | 0.00 | 0.00 | 69 | 1003.7 |
| 20260505234853 | 73 | 317 | 2.6 | 3.5 | 0.00 | 0.00 | 0.00 | 68 | 1003.0 |
| 20260505234351 | 74 | 314 | 1.7 | 1.7 | 0.00 | 0.00 | 0.00 | 67 | 1003.4 |
| 20260505233848 | 74 | 316 | 3.5 | 3.5 | 0.00 | 0.00 | 0.00 | 67 | 1003.4 |
| 20260505233346 | 74 | 261 | 3.5 | 3.5 | 0.00 | 0.00 | 0.00 | 67 | 1003.0 |
| 20260505232843 | 75 | 300 | 3.5 | 3.5 | 0.00 | 0.00 | 0.00 | 68 | 1003.0 |
| 20260505232341 | 75 | 301 | 5.2 | 5.2 | 0.00 | 0.00 | 0.00 | 67 | 1002.7 |
| 20260505231837 | 76 | 299 | 2.6 | 2.6 | 0.00 | 0.00 | 0.00 | 67 | 1002.7 |
| 20260505231335 | 76 | 308 | 1.7 | 1.7 | 0.00 | 0.00 | 0.00 | 66 | 1002.7 |
| 20260505230833 | 77 | 318 | 2.6 | 2.6 | 0.00 | 0.00 | 0.00 | 65 | 1002.7 |
| 20260505230330 | 78 | 240 | 4.3 | 5.2 | 0.00 | 0.00 | 0.00 | 63 | 1002.7 |
| 20260505225826 | 78 | 313 | 3.5 | 3.5 | 0.00 | 0.00 | 0.00 | 64 | 1002.7 |
| 20260505225324 | 78 | 318 | 1.7 | 1.7 | 0.00 | 0.00 | 0.00 | 64 | 1002.7 |
| 20260505224819 | 78 | 311 | 3.5 | 3.5 | 0.00 | 0.00 | 0.00 | 65 | 1002.7 |
| 20260505224317 | 78 | 314 | 1.7 | 1.7 | 0.00 | 0.00 | 0.00 | 64 | 1002.3 |
| 20260505223814 | 79 | 320 | 3.5 | 3.5 | 0.00 | 0.00 | 0.00 | 63 | 1002.3 |
| 20260505223311 | 80 | 306 | 2.6 | 3.5 | 0.00 | 0.00 | 0.00 | 62 | 1002.0 |
| 20260505222806 | 82 | 310 | 1.7 | 1.7 | 0.00 | 0.00 | 0.00 | 59 | 1002.0 |
| 20260505222305 | 82 | 268 | 0.0 | 0.0 | 0.00 | 0.00 | 0.00 | 58 | 1001.7 |
| 20260505221800 | 82 | 317 | 0.0 | 0.0 | 0.00 | 0.00 | 0.00 | 56 | 1001.7 |
| 20260505221256 | 83 | 328 | 1.7 | 1.7 | 0.00 | 0.00 | 0.00 | 55 | 1002.0 |
| 20260505220753 | 83 | 316 | 4.3 | 5.2 | 0.00 | 0.00 | 0.00 | 55 | 1002.0 |
| 20260505220251 | 85 | 324 | 3.5 | 3.5 | 0.00 | 0.00 | 0.00 | 53 | 1001.7 |
| 20260505215749 | 84 | 289 | 2.6 | 2.6 | 0.00 | 0.00 | 0.00 | 53 | 1001.7 |
| 20260505215246 | 84 | 318 | 4.3 | 4.3 | 0.00 | 0.00 | 0.00 | 51 | 1001.7 |
| 20260505214744 | 84 | 313 | 0.9 | 0.9 | 0.00 | 0.00 | 0.00 | 49 | 1001.7 |
| 20260505214242 | 84 | 254 | 2.6 | 3.5 | 0.00 | 0.00 | 0.00 | 48 | 1001.7 |
| 20260505213738 | 85 | 265 | 0.0 | 0.0 | 0.00 | 0.00 | 0.00 | 47 | 1001.7 |
| 20260505213236 | 85 | 306 | 0.0 | 0.0 | 0.00 | 0.00 | 0.00 | 45 | 1001.7 |
| 20260505212731 | 85 | 307 | 3.5 | 4.3 | 0.00 | 0.00 | 0.00 | 45 | 1001.7 |
| 20260505212229 | 85 | 320 | 0.0 | 0.0 | 0.00 | 0.00 | 0.00 | 44 | 1001.7 |
| 20260505211726 | 86 | 290 | 2.6 | 2.6 | 0.00 | 0.00 | 0.00 | 44 | 1001.7 |
| 20260505211224 | 86 | 312 | 3.5 | 3.5 | 0.00 | 0.00 | 0.00 | 44 | 1001.7 |
| 20260505210720 | 86 | 270 | 3.5 | 3.5 | 0.00 | 0.00 | 0.00 | 44 | 1001.7 |
| 20260505210217 | 86 | 295 | 1.7 | 1.7 | 0.00 | 0.00 | 0.00 | 46 | 1002.0 |
| 20260505205714 | 86 | 306 | 3.5 | 3.5 | 0.00 | 0.00 | 0.00 | 46 | 1002.0 |
| 20260505205213 | 86 | 225 | 5.2 | 5.2 | 0.00 | 0.00 | 0.00 | 50 | 1002.0 |
| 20260505204708 | 87 | 220 | 3.5 | 4.3 | 0.00 | 0.00 | 0.00 | 55 | 1002.0 |
| 20260505204206 | 85 | 252 | 0.0 | 0.0 | 0.00 | 0.00 | 0.00 | 57 | 1002.0 |
| 20260505203658 | 85 | 258 | 3.5 | 3.5 | 0.00 | 0.00 | 0.00 | 55 | 1002.0 |
| 20260505203154 | 85 | 259 | 0.0 | 0.0 | 0.00 | 0.00 | 0.00 | 56 | 1002.0 |
| 20260505202650 | 87 | 246 | 0.0 | 0.0 | 0.00 | 0.00 | 0.00 | 58 | 1002.0 |
| 20260505202147 | 85 | 220 | 0.0 | 0.0 | 0.00 | 0.00 | 0.00 | 57 | 1002.0 |
| 20260505201643 | 85 | 240 | 0.0 | 0.0 | 0.00 | 0.00 | 0.00 | 62 | 1002.3 |
| 20260505201141 | 84 | 244 | 0.0 | 0.0 | 0.00 | 0.00 | 0.00 | 58 | 1002.3 |
| 20260505200639 | 86 | 240 | 0.0 | 0.0 | 0.00 | 0.00 | 0.00 | 57 | 1002.3 |
| 20260505200136 | 85 | 149 | 0.0 | 0.0 | 0.00 | 0.00 | 0.00 | 59 | 1002.0 |
| 20260505195631 | 85 | 204 | 3.5 | 3.5 | 0.00 | 0.00 | 0.00 | 57 | 1002.0 |
| 20260505195128 | 86 | 252 | 0.0 | 0.0 | 0.00 | 0.00 | 0.00 | 59 | 1002.0 |
| 20260505194620 | 86 | 252 | 1.7 | 1.7 | 0.00 | 0.00 | 0.00 | 59 | 1002.0 |
| 20260505194116 | 86 | 214 | 4.3 | 4.3 | 0.00 | 0.00 | 0.00 | 58 | 1002.7 |
| 20260505193613 | 86 | 250 | 0.0 | 0.0 | 0.00 | 0.00 | 0.00 | 59 | 1002.7 |
| 20260505193110 | 85 | 234 | 1.7 | 1.7 | 0.00 | 0.00 | 0.00 | 59 | 1002.3 |
| 20260505192609 | 84 | 228 | 3.5 | 4.3 | 0.00 | 0.00 | 0.00 | 58 | 1002.3 |
| 20260505192106 | 85 | 254 | 0.0 | 0.0 | 0.00 | 0.00 | 0.00 | 62 | 1002.0 |
| 20260505191604 | 84 | 246 | 0.0 | 0.0 | 0.00 | 0.00 | 0.00 | 58 | 1002.3 |
| 20260505191102 | 84 | 108 | 0.0 | 0.0 | 0.00 | 0.00 | 0.00 | 57 | 1002.3 |
| 20260505190556 | 84 | 264 | 0.0 | 0.0 | 0.00 | 0.00 | 0.00 | 61 | 1002.3 |
| 20260505190052 | 85 | 260 | 0.0 | 0.0 | 0.00 | 0.00 | 0.00 | 61 | 1002.3 |
| 20260505185549 | 86 | 246 | 0.0 | 0.0 | 0.00 | 0.00 | 0.00 | 59 | 1002.0 |
| 20260505185046 | 85 | 244 | 0.0 | 0.0 | 0.00 | 0.00 | 0.00 | 60 | 1002.0 |
| 20260505184542 | 85 | 99 | 0.0 | 0.0 | 0.00 | 0.00 | 0.00 | 60 | 1002.3 |
| 20260505184039 | 86 | 164 | 0.0 | 0.0 | 0.00 | 0.00 | 0.00 | 59 | 1002.3 |
| 20260505183536 | 85 | 220 | 0.0 | 0.0 | 0.00 | 0.00 | 0.00 | 59 | 1002.3 |
| 20260505183033 | 85 | 85 | 0.0 | 0.0 | 0.00 | 0.00 | 0.00 | 62 | 1002.3 |
| 20260505182530 | 84 | 214 | 0.0 | 0.0 | 0.00 | 0.00 | 0.00 | 60 | 1002.0 |
| 20260505182026 | 84 | 228 | 0.0 | 0.0 | 0.00 | 0.00 | 0.00 | 61 | 1002.0 |
| 20260505181523 | 86 | 243 | 0.0 | 0.0 | 0.00 | 0.00 | 0.00 | 62 | 1002.3 |
| 20260505181021 | 85 | 240 | 0.0 | 0.0 | 0.00 | 0.00 | 0.00 | 61 | 1002.3 |
| 20260505180516 | 85 | 228 | 0.0 | 0.0 | 0.00 | 0.00 | 0.00 | 63 | 1002.3 |
| 20260505180015 | 85 | 213 | 0.0 | 0.0 | 0.00 | 0.00 | 0.00 | 64 | 1002.3 |
| 20260505175509 | 84 | 228 | 0.0 | 0.0 | 0.00 | 0.00 | 0.00 | 64 | 1002.3 |
| 20260505175006 | 84 | 216 | 1.7 | 1.7 | 0.00 | 0.00 | 0.00 | 64 | 1002.3 |
| 20260505174503 | 83 | 222 | 0.0 | 0.0 | 0.00 | 0.00 | 0.00 | 64 | 1002.3 |
| 20260505173959 | 83 | 258 | 0.0 | 0.0 | 0.00 | 0.00 | 0.00 | 67 | 1002.0 |
| 20260505173455 | 82 | 182 | 0.0 | 0.0 | 0.00 | 0.00 | 0.00 | 67 | 1002.3 |
| 20260505172953 | 82 | 227 | 0.0 | 0.0 | 0.00 | 0.00 | 0.00 | 67 | 1002.0 |
| 20260505172451 | 83 | 244 | 0.0 | 0.0 | 0.00 | 0.00 | 0.00 | 67 | 1002.3 |
| 20260505171950 | 82 | 228 | 0.0 | 0.0 | 0.00 | 0.00 | 0.00 | 67 | 1002.3 |
| 20260505171447 | 82 | 252 | 0.0 | 0.0 | 0.00 | 0.00 | 0.00 | 68 | 1002.3 |
| 20260505170944 | 81 | 204 | 0.0 | 0.0 | 0.00 | 0.00 | 0.00 | 69 | 1002.3 |
| 20260505170440 | 80 | 222 | 0.0 | 0.0 | 0.00 | 0.00 | 0.00 | 71 | 1002.3 |
| 20260505165935 | 80 | 226 | 0.0 | 0.0 | 0.00 | 0.00 | 0.00 | 70 | 1002.7 |
| 20260505165426 | 79 | 216 | 0.0 | 0.0 | 0.00 | 0.00 | 0.00 | 71 | 1002.3 |
| 20260505164921 | 79 | 204 | 0.0 | 0.0 | 0.00 | 0.00 | 0.00 | 71 | 1002.3 |
| 20260505164418 | 79 | 215 | 0.0 | 0.0 | 0.00 | 0.00 | 0.00 | 72 | 1002.3 |
| 20260505163916 | 79 | 120 | 0.0 | 0.0 | 0.00 | 0.00 | 0.00 | 72 | 1002.3 |
| 20260505163415 | 79 | 241 | 0.0 | 0.0 | 0.00 | 0.00 | 0.00 | 72 | 1002.7 |
| 20260505162914 | 79 | 239 | 2.6 | 3.5 | 0.00 | 0.00 | 0.00 | 72 | 1002.3 |
| 20260505162409 | 78 | 81 | 0.0 | 0.0 | 0.00 | 0.00 | 0.00 | 72 | 1002.3 |
| 20260505161907 | 78 | 260 | 0.0 | 0.0 | 0.00 | 0.00 | 0.00 | 72 | 1002.0 |
| 20260505161404 | 78 | 56 | 0.0 | 0.0 | 0.00 | 0.00 | 0.00 | 74 | 1002.3 |
| 20260505160901 | 78 | 252 | 0.0 | 0.0 | 0.00 | 0.00 | 0.00 | 73 | 1002.0 |
| 20260505160359 | 78 | 216 | 0.0 | 0.0 | 0.00 | 0.00 | 0.00 | 73 | 1002.0 |
| 20260505153337 | 79 | 204 | 0.0 | 0.0 | 0.00 | 0.00 | 0.00 | 71 | 1002.0 |
| 20260505152834 | 78 | 241 | 0.0 | 0.0 | 0.00 | 0.00 | 0.00 | 73 | 1002.0 |
| 20260505152331 | 78 | 86 | 0.0 | 0.0 | 0.00 | 0.00 | 0.00 | 73 | 1002.0 |
| 20260505151826 | 79 | 222 | 0.9 | 0.9 | 0.00 | 0.00 | 0.00 | 72 | 1002.0 |
| 20260505151323 | 78 | 222 | 0.0 | 0.0 | 0.00 | 0.00 | 0.00 | 74 | 1002.0 |
| 20260505150820 | 78 | 236 | 1.7 | 1.7 | 0.00 | 0.00 | 0.00 | 76 | 1002.0 |
| 20260505150317 | 77 | 215 | 0.0 | 0.0 | 0.00 | 0.00 | 0.00 | 77 | 1002.3 |
| 20260505140246 | 75 | 211 | 0.0 | 0.0 | 0.00 | 0.00 | 0.00 | 79 | 1001.7 |
| 20260505130210 | 72 | 220 | 0.0 | 0.0 | 0.00 | 0.00 | 0.00 | 86 | 1002.0 |
| 20260505124700 | 71 | 221 | 0.0 | 0.0 | 0.00 | 0.00 | 0.00 | 86 | 1001.7 |
| 20260505124157 | 71 | 336 | 0.0 | 0.0 | 0.00 | 0.00 | 0.00 | 87 | 1001.7 |
| 20260505123653 | 71 | 234 | 0.0 | 0.0 | 0.00 | 0.00 | 0.00 | 87 | 1001.3 |
| 20260505123150 | 71 | 270 | 0.0 | 0.0 | 0.00 | 0.00 | 0.00 | 87 | 1001.3 |
| 20260505122646 | 71 | 228 | 0.0 | 0.0 | 0.00 | 0.00 | 0.00 | 87 | 1001.0 |
| 20260505122143 | 71 | 78 | 0.0 | 0.0 | 0.00 | 0.00 | 0.00 | 88 | 1001.0 |
| 20260505121640 | 71 | 192 | 0.0 | 0.0 | 0.00 | 0.00 | 0.00 | 88 | 1001.0 |
| 20260505121137 | 71 | 216 | 1.7 | 1.7 | 0.00 | 0.00 | 0.00 | 88 | 1001.0 |
| 20260505120633 | 71 | 218 | 0.0 | 0.0 | 0.00 | 0.00 | 0.00 | 87 | 1001.3 |
| 20260505120129 | 71 | 270 | 0.0 | 0.0 | 0.00 | 0.00 | 0.00 | 87 | 1001.3 |
| 20260505115623 | 71 | 228 | 0.0 | 0.0 | 0.00 | 0.00 | 0.00 | 87 | 1001.0 |
| 20260505115121 | 71 | 212 | 0.0 | 0.0 | 0.00 | 0.00 | 0.00 | 87 | 1001.0 |
| 20260505114618 | 70 | 229 | 1.7 | 1.7 | 0.00 | 0.00 | 0.00 | 88 | 1001.0 |
| 20260505114114 | 70 | 98 | 0.0 | 0.0 | 0.00 | 0.00 | 0.00 | 88 | 1001.0 |
| 20260505113611 | 71 | 258 | 0.0 | 0.0 | 0.00 | 0.00 | 0.00 | 87 | 1001.0 |
| 20260505113107 | 71 | 221 | 1.7 | 1.7 | 0.00 | 0.00 | 0.00 | 87 | 1001.0 |
| 20260505112603 | 71 | 19 | 0.0 | 0.0 | 0.00 | 0.00 | 0.00 | 87 | 1000.6 |
| 20260505112102 | 71 | 19 | 0.0 | 0.0 | 0.00 | 0.00 | 0.00 | 87 | 1000.6 |
| 20260505111556 | 71 | 22 | 0.0 | 0.0 | 0.00 | 0.00 | 0.00 | 87 | 1000.6 |
| 20260505111052 | 71 | 281 | 0.0 | 0.0 | 0.00 | 0.00 | 0.00 | 87 | 1001.0 |
| 20260505110549 | 71 | 209 | 0.0 | 0.0 | 0.00 | 0.00 | 0.00 | 87 | 1001.0 |
| 20260505102021 | 71 | 252 | 0.0 | 0.0 | 0.00 | 0.00 | 0.00 | 86 | 1001.0 |
| 20260505101519 | 71 | 193 | 0.0 | 0.0 | 0.00 | 0.00 | 0.00 | 85 | 1001.0 |
| 20260505101015 | 71 | 222 | 0.0 | 0.0 | 0.00 | 0.00 | 0.00 | 85 | 1001.0 |
| 20260505100512 | 72 | 228 | 1.7 | 1.7 | 0.00 | 0.00 | 0.00 | 85 | 1001.0 |
| 20260505100009 | 72 | 210 | 2.6 | 2.6 | 0.00 | 0.00 | 0.00 | 85 | 1001.0 |
| 20260505095505 | 72 | 211 | 3.5 | 3.5 | 0.00 | 0.00 | 0.00 | 84 | 1000.2 |
| 20260505095001 | 72 | 68 | 1.7 | 1.7 | 0.00 | 0.00 | 0.00 | 84 | 1000.6 |
| 20260505094458 | 72 | 240 | 0.0 | 0.0 | 0.00 | 0.00 | 0.00 | 84 | 1000.6 |
| 20260505093954 | 72 | 222 | 0.0 | 0.0 | 0.00 | 0.00 | 0.00 | 84 | 1001.0 |
| 20260505093451 | 72 | 242 | 0.0 | 0.0 | 0.00 | 0.00 | 0.00 | 84 | 1001.0 |
| 20260505092948 | 72 | 217 | 0.0 | 0.0 | 0.00 | 0.00 | 0.00 | 84 | 1001.0 |
| 20260505092446 | 72 | 252 | 0.0 | 0.0 | 0.00 | 0.00 | 0.00 | 83 | 1001.0 |
| 20260505091943 | 72 | 206 | 0.0 | 0.0 | 0.00 | 0.00 | 0.00 | 83 | 1000.6 |
| 20260505091441 | 72 | 198 | 1.7 | 1.7 | 0.00 | 0.00 | 0.00 | 83 | 1001.3 |
| 20260505090939 | 72 | 212 | 1.7 | 1.7 | 0.00 | 0.00 | 0.00 | 83 | 1001.3 |
| 20260505090437 | 72 | 208 | 2.6 | 3.5 | 0.00 | 0.00 | 0.00 | 83 | 1001.3 |
| 20260505085933 | 72 | 161 | 0.0 | 0.0 | 0.00 | 0.00 | 0.00 | 83 | 1001.3 |
| 20260505085431 | 72 | 242 | 2.6 | 2.6 | 0.00 | 0.00 | 0.00 | 83 | 1001.0 |
| 20260505084930 | 72 | 234 | 0.0 | 0.0 | 0.00 | 0.00 | 0.00 | 82 | 1001.3 |
| 20260505084427 | 72 | 204 | 0.0 | 0.0 | 0.00 | 0.00 | 0.00 | 82 | 1001.3 |
| 20260505083925 | 72 | 227 | 0.9 | 0.9 | 0.00 | 0.00 | 0.00 | 82 | 1001.3 |
| 20260505083422 | 73 | 215 | 0.0 | 0.0 | 0.00 | 0.00 | 0.00 | 81 | 1001.3 |
| 20260505082918 | 73 | 231 | 0.9 | 0.9 | 0.00 | 0.00 | 0.00 | 81 | 1001.3 |
| 20260505082414 | 73 | 234 | 0.0 | 0.0 | 0.00 | 0.00 | 0.00 | 81 | 1001.7 |
| 20260505081912 | 73 | 198 | 0.9 | 0.9 | 0.00 | 0.00 | 0.00 | 81 | 1001.3 |
| 20260505081408 | 73 | 204 | 2.6 | 2.6 | 0.00 | 0.00 | 0.00 | 81 | 1001.7 |
| 20260505080905 | 73 | 283 | 0.0 | 0.0 | 0.00 | 0.00 | 0.00 | 80 | 1001.3 |
| 20260505080401 | 73 | 191 | 1.7 | 1.7 | 0.00 | 0.00 | 0.00 | 80 | 1001.7 |
| 20260505075856 | 73 | 114 | 0.0 | 0.0 | 0.00 | 0.00 | 0.00 | 80 | 1001.7 |
| 20260505075353 | 73 | 222 | 0.0 | 0.0 | 0.00 | 0.00 | 0.00 | 80 | 1001.7 |
| 20260505074851 | 73 | 222 | 0.0 | 0.0 | 0.00 | 0.00 | 0.00 | 79 | 1001.7 |
| 20260505074348 | 73 | 196 | 0.0 | 0.0 | 0.00 | 0.00 | 0.00 | 79 | 1001.7 |
| 20260505073845 | 73 | 248 | 0.0 | 0.0 | 0.00 | 0.00 | 0.00 | 78 | 1002.0 |
| 20260505073343 | 73 | 229 | 0.0 | 0.0 | 0.00 | 0.00 | 0.00 | 78 | 1002.0 |
| 20260505072840 | 73 | 330 | 1.7 | 1.7 | 0.00 | 0.00 | 0.00 | 78 | 1002.0 |
| 20260505072336 | 73 | 234 | 0.0 | 0.0 | 0.00 | 0.00 | 0.00 | 77 | 1002.0 |
| 20260505071832 | 74 | 242 | 0.0 | 0.0 | 0.00 | 0.00 | 0.00 | 77 | 1002.3 |
| 20260505071328 | 74 | 235 | 0.9 | 0.9 | 0.00 | 0.00 | 0.00 | 76 | 1002.3 |
| 20260505070827 | 74 | 202 | 2.6 | 2.6 | 0.00 | 0.00 | 0.00 | 76 | 1002.3 |
| 20260505070323 | 74 | 264 | 0.0 | 0.0 | 0.00 | 0.00 | 0.00 | 76 | 1002.3 |
| 20260505065818 | 74 | 223 | 1.7 | 1.7 | 0.00 | 0.00 | 0.00 | 75 | 1002.3 |
| 20260505065315 | 74 | 224 | 1.7 | 1.7 | 0.00 | 0.00 | 0.00 | 75 | 1002.3 |
| 20260505064812 | 74 | 264 | 1.7 | 1.7 | 0.00 | 0.00 | 0.00 | 74 | 1002.7 |
| 20260505064309 | 74 | 225 | 1.7 | 1.7 | 0.00 | 0.00 | 0.00 | 74 | 1002.7 |
| 20260505063808 | 74 | 235 | 0.9 | 0.9 | 0.00 | 0.00 | 0.00 | 74 | 1003.0 |
| 20260505063303 | 74 | 206 | 0.0 | 0.0 | 0.00 | 0.00 | 0.00 | 74 | 1002.7 |
| 20260505062800 | 74 | 185 | 0.0 | 0.0 | 0.00 | 0.00 | 0.00 | 73 | 1002.7 |
| 20260505062258 | 75 | 242 | 0.0 | 0.0 | 0.00 | 0.00 | 0.00 | 73 | 1002.7 |
| 20260505061754 | 75 | 234 | 0.0 | 0.0 | 0.00 | 0.00 | 0.00 | 72 | 1002.7 |
| 20260505061252 | 75 | 241 | 3.5 | 3.5 | 0.00 | 0.00 | 0.00 | 72 | 1003.0 |
| 20260505060749 | 74 | 234 | 1.7 | 1.7 | 0.00 | 0.00 | 0.00 | 73 | 1003.0 |
| 20260505060246 | 74 | 220 | 0.0 | 0.0 | 0.00 | 0.00 | 0.00 | 73 | 1002.7 |
| 20260505055741 | 74 | 203 | 0.0 | 0.0 | 0.00 | 0.00 | 0.00 | 74 | 1002.7 |
| 20260505055238 | 74 | 240 | 0.0 | 0.0 | 0.00 | 0.00 | 0.00 | 73 | 1002.7 |
| 20260505054735 | 74 | 236 | 2.6 | 2.6 | 0.00 | 0.00 | 0.00 | 74 | 1002.7 |
| 20260505054228 | 74 | 241 | 0.0 | 0.0 | 0.00 | 0.00 | 0.00 | 73 | 1002.7 |
| 20260505053726 | 75 | 275 | 1.7 | 1.7 | 0.00 | 0.00 | 0.00 | 73 | 1002.7 |
| 20260505053222 | 75 | 222 | 0.0 | 0.0 | 0.00 | 0.00 | 0.00 | 73 | 1002.7 |
| 20260505052720 | 75 | 222 | 0.0 | 0.0 | 0.00 | 0.00 | 0.00 | 73 | 1002.3 |
| 20260505052216 | 75 | 264 | 2.6 | 2.6 | 0.00 | 0.00 | 0.00 | 73 | 1002.7 |
| 20260505051713 | 75 | 210 | 1.7 | 1.7 | 0.00 | 0.00 | 0.00 | 73 | 1002.7 |
| 20260505051211 | 75 | 324 | 1.7 | 1.7 | 0.00 | 0.00 | 0.00 | 72 | 1003.0 |
| 20260505050703 | 75 | 252 | 1.7 | 1.7 | 0.00 | 0.00 | 0.00 | 73 | 1002.7 |
| 20260505050201 | 75 | 222 | 2.6 | 2.6 | 0.00 | 0.00 | 0.00 | 72 | 1003.0 |
| 20260505041630 | 75 | 258 | 1.7 | 1.7 | 0.00 | 0.00 | 0.00 | 72 | 1003.0 |
| 20260505041128 | 75 | 248 | 1.7 | 1.7 | 0.00 | 0.00 | 0.00 | 72 | 1003.0 |
| 20260505040624 | 75 | 212 | 2.6 | 3.5 | 0.00 | 0.00 | 0.00 | 72 | 1003.4 |
| 20260505040122 | 75 | 203 | 2.6 | 3.5 | 0.00 | 0.00 | 0.00 | 72 | 1003.0 |
| 20260505035618 | 75 | 213 | 1.7 | 1.7 | 0.00 | 0.00 | 0.00 | 72 | 1003.0 |